Meteo pe oră la Aligudarz

Astăzi, 28 Ianuarie, Joi

Timp Temperatura Precipitaţii Vânt Presiune Umiditate
00:00 +1°C° 0 mm 2 m/s 591 mmHg 34%
01:00 +1°C° 0 mm 2 m/s 591 mmHg 34%
02:00 +2°C° 0 mm 1 m/s 590 mmHg 35%
03:00 +1°C° 0 mm 2 m/s 590 mmHg 35%
04:00 +1°C° 0 mm 2 m/s 590 mmHg 35%
05:00 +1°C° 0 mm 2 m/s 590 mmHg 34%
06:00 +1°C° 0 mm 2 m/s 590 mmHg 33%
07:00 +2°C° 0 mm 2 m/s 591 mmHg 34%
08:00 +3°C° 0 mm 2 m/s 591 mmHg 34%
09:00 +4°C° 0 mm 2 m/s 592 mmHg 35%
10:00 +5°C° 0 mm 2 m/s 592 mmHg 35%
11:00 +6°C° 0 mm 2 m/s 593 mmHg 35%
12:00 +7°C° 0 mm 2 m/s 593 mmHg 36%
13:00 +7°C° 0 mm 2 m/s 592 mmHg 36%
14:00 +7°C° 0 mm 3 m/s 592 mmHg 36%
15:00 +7°C° 0 mm 3 m/s 592 mmHg 37%
16:00 +5°C° 0 mm 3 m/s 591 mmHg 39%
17:00 +3°C° 0 mm 3 m/s 591 mmHg 41%
18:00 +3°C° 0 mm 2 m/s 590 mmHg 43%
19:00 +2°C° 0 mm 2 m/s 590 mmHg 44%
20:00 +1°C° 0 mm 3 m/s 590 mmHg 46%
21:00 0°C° 0 mm 3 m/s 590 mmHg 47%
22:00 +1°C° 0 mm 2 m/s 590 mmHg 50%
23:00 +1°C° 0 mm 2 m/s 590 mmHg 54%

Mâine, 29 Ianuarie, Vineri

Timp Temperatura Precipitaţii Vânt Presiune Umiditate
00:00 -1°C° 0 mm 2 m/s 590 mmHg 57%
01:00 -1°C° 0 mm 2 m/s 589 mmHg 58%
02:00 -1°C° 0 mm 2 m/s 589 mmHg 59%
03:00 -1°C° 0 mm 2 m/s 589 mmHg 60%
04:00 -1°C° 0 mm 2 m/s 589 mmHg 63%
05:00 -1°C° 0 mm 2 m/s 589 mmHg 66%
06:00 -2°C° 0 mm 2 m/s 589 mmHg 70%
07:00 -1°C° 0.1 mm 2 m/s 590 mmHg 71%
08:00 +1°C° 0.1 mm 2 m/s 590 mmHg 73%
09:00 +2°C° 0.1 mm 2 m/s 591 mmHg 75%
10:00 +2°C° 0.8 mm 2 m/s 590 mmHg 80%
11:00 +3°C° 0.8 mm 1 m/s 590 mmHg 86%
12:00 +3°C° 0.8 mm 1 m/s 590 mmHg 91%
13:00 +3°C° 1.2 mm 1 m/s 589 mmHg 92%
14:00 +3°C° 1.2 mm 1 m/s 589 mmHg 93%
15:00 +3°C° 1.2 mm 1 m/s 588 mmHg 94%
16:00 +3°C° 0.3 mm 1 m/s 588 mmHg 94%
17:00 +2°C° 0.3 mm 1 m/s 588 mmHg 94%
18:00 +2°C° 0.3 mm 1 m/s 588 mmHg 94%
19:00 +2°C° 0.5 mm 1 m/s 588 mmHg 95%
20:00 +1°C° 0.5 mm 2 m/s 587 mmHg 96%
21:00 +1°C° 0.5 mm 2 m/s 587 mmHg 96%
22:00 +1°C° 1.2 mm 2 m/s 587 mmHg 97%
23:00 +1°C° 1.2 mm 2 m/s 587 mmHg 97%

Poimâine, 30 Ianuarie, Sâmbătă

Timp Temperatura Precipitaţii Vânt Presiune Umiditate
00:00 +1°C° 1.2 mm 2 m/s 586 mmHg 97%
01:00 +1°C° 0.6 mm 2 m/s 586 mmHg 96%
02:00 0°C° 0.6 mm 3 m/s 586 mmHg 96%
03:00 0°C° 0.6 mm 3 m/s 586 mmHg 95%
04:00 -1°C° 0 mm 3 m/s 586 mmHg 94%
05:00 -1°C° 0 mm 2 m/s 586 mmHg 93%
06:00 -2°C° 0 mm 2 m/s 586 mmHg 92%
07:00 -1°C° 0 mm 3 m/s 586 mmHg 89%
08:00 -1°C° 0 mm 3 m/s 586 mmHg 86%
09:00 -1°C° 0 mm 4 m/s 587 mmHg 83%
10:00 -1°C° 0 mm 5 m/s 587 mmHg 80%
11:00 -1°C° 0 mm 6 m/s 587 mmHg 76%
12:00 -1°C° 0 mm 7 m/s 587 mmHg 73%
13:00 -1°C° 0 mm 7 m/s 587 mmHg 72%
14:00 -1°C° 0 mm 7 m/s 587 mmHg 72%
15:00 -1°C° 0 mm 8 m/s 586 mmHg 71%
16:00 -3°C° 0 mm 7 m/s 586 mmHg 74%
17:00 -4°C° 0 mm 5 m/s 587 mmHg 78%
18:00 -5°C° 0 mm 4 m/s 587 mmHg 81%
19:00 -5°C° 0 mm 4 m/s 587 mmHg 83%
20:00 -6°C° 0 mm 3 m/s 587 mmHg 84%
21:00 -6°C° 0 mm 3 m/s 588 mmHg 86%
22:00 -7°C° 0 mm 3 m/s 588 mmHg 85%
23:00 -7°C° 0 mm 3 m/s 588 mmHg 85%

31 Ianuarie, Duminică

Timp Temperatura Precipitaţii Vânt Presiune Umiditate
00:00 -6°C° 0 mm 2 m/s 588 mmHg 85%
01:00 -7°C° 0 mm 2 m/s 588 mmHg 82%
02:00 -7°C° 0 mm 2 m/s 587 mmHg 78%
03:00 -7°C° 0 mm 2 m/s 587 mmHg 75%
04:00 -7°C° 0 mm 2 m/s 587 mmHg 71%
05:00 -7°C° 0 mm 2 m/s 587 mmHg 66%
06:00 -7°C° 0 mm 2 m/s 588 mmHg 61%
07:00 -6°C° 0 mm 2 m/s 588 mmHg 57%
08:00 -4°C° 0 mm 2 m/s 589 mmHg 52%
09:00 -3°C° 0 mm 2 m/s 590 mmHg 48%
10:00 -2°C° 0 mm 2 m/s 590 mmHg 48%
11:00 +1°C° 0 mm 2 m/s 590 mmHg 48%
12:00 +2°C° 0 mm 2 m/s 590 mmHg 48%
13:00 +2°C° 0 mm 2 m/s 590 mmHg 49%
14:00 +2°C° 0 mm 2 m/s 590 mmHg 50%
15:00 +2°C° 0 mm 2 m/s 589 mmHg 51%
16:00 +1°C° 0 mm 2 m/s 589 mmHg 53%
17:00 -1°C° 0 mm 2 m/s 589 mmHg 55%
18:00 -3°C° 0 mm 2 m/s 589 mmHg 56%
19:00 -3°C° 0 mm 2 m/s 589 mmHg 55%
20:00 -4°C° 0 mm 2 m/s 589 mmHg 54%
21:00 -4°C° 0 mm 2 m/s 589 mmHg 52%
22:00 -4°C° 0 mm 2 m/s 589 mmHg 51%
23:00 -4°C° 0 mm 2 m/s 590 mmHg 50%

1 Februarie, Luni

Timp Temperatura Precipitaţii Vânt Presiune Umiditate
00:00 -4°C° 0 mm 2 m/s 590 mmHg 48%
01:00 -4°C° 0 mm 2 m/s 590 mmHg 47%
02:00 -3°C° 0 mm 1 m/s 590 mmHg 46%
03:00 -3°C° 0 mm 1 m/s 590 mmHg 44%
04:00 -3°C° 0 mm 1 m/s 590 mmHg 43%
05:00 -3°C° 0 mm 1 m/s 590 mmHg 42%
06:00 -3°C° 0 mm 1 m/s 590 mmHg 42%
07:00 -1°C° 0 mm 1 m/s 591 mmHg 41%
08:00 0°C° 0 mm 1 m/s 592 mmHg 40%
09:00 +1°C° 0 mm 1 m/s 593 mmHg 39%
10:00 +3°C° 0 mm 1 m/s 593 mmHg 41%
11:00 +4°C° 0 mm 1 m/s 593 mmHg 44%
12:00 +5°C° 0 mm 1 m/s 594 mmHg 47%
13:00 +5°C° 0 mm 1 m/s 594 mmHg 46%
14:00 +6°C° 0 mm 1 m/s 593 mmHg 46%
15:00 +6°C° 0 mm 1 m/s 593 mmHg 46%
16:00 +4°C° 0 mm 1 m/s 593 mmHg 49%
17:00 +3°C° 0 mm 1 m/s 592 mmHg 51%
18:00 +1°C° 0 mm 1 m/s 591 mmHg 54%
19:00 +1°C° 0 mm 1 m/s 591 mmHg 52%
20:00 +1°C° 0 mm 1 m/s 592 mmHg 50%
21:00 0°C° 0 mm 1 m/s 592 mmHg 48%
22:00 0°C° 0 mm 1 m/s 592 mmHg 46%
23:00 0°C° 0 mm 1 m/s 592 mmHg 44%

2 Februarie, Marţi

Timp Temperatura Precipitaţii Vânt Presiune Umiditate
00:00 0°C° 0 mm 1 m/s 591 mmHg 42%
01:00 0°C° 0 mm 1 m/s 591 mmHg 40%
02:00 0°C° 0 mm 1 m/s 591 mmHg 38%
03:00 0°C° 0 mm 1 m/s 591 mmHg 36%
04:00 0°C° 0 mm 1 m/s 591 mmHg 35%
05:00 0°C° 0 mm 1 m/s 591 mmHg 34%
06:00 0°C° 0 mm 1 m/s 591 mmHg 33%
07:00 +1°C° 0 mm 1 m/s 592 mmHg 32%
08:00 +3°C° 0 mm 1 m/s 593 mmHg 31%
09:00 +4°C° 0 mm 1 m/s 594 mmHg 31%
10:00 +5°C° 0 mm 1 m/s 594 mmHg 33%
11:00 +6°C° 0 mm 1 m/s 594 mmHg 36%
12:00 +8°C° 0 mm 1 m/s 595 mmHg 38%
13:00 +8°C° 0 mm 1 m/s 594 mmHg 38%
14:00 +8°C° 0 mm 1 m/s 594 mmHg 39%
15:00 +8°C° 0 mm 1 m/s 594 mmHg 39%
16:00 +6°C° 0 mm 1 m/s 593 mmHg 40%
17:00 +4°C° 0 mm 1 m/s 592 mmHg 42%
18:00 +2°C° 0 mm 1 m/s 591 mmHg 44%
19:00 +2°C° 0 mm 1 m/s 591 mmHg 42%
20:00 +2°C° 0 mm 1 m/s 591 mmHg 40%
21:00 +2°C° 0 mm 1 m/s 591 mmHg 38%
22:00 +2°C° 0 mm 1 m/s 591 mmHg 37%
23:00 +1°C° 0 mm 1 m/s 591 mmHg 35%
Arată mai mult

Formular de consimțământ

Meteoprog și furnizorii noștri de servicii pot stoca și accesa date personale, precum cookies, identificatori de dispozitiv sau alte tehnologii similare pe dispozitivul dumneavoastră și procesa astfel de date pentru a personaliza conținutul și reclamele, dar și pentru a oferi caracteristici de social media și pentru a analiza traficul.

  • Stocarea și/sau accesarea informațiilor pe dispozitivul dumneavoastră

    Cookies, identificatori de dispozitiv sau alte informații pot fi stocate sau accesate pe dispozitiv în scopurile indicate mai sus.

  • Reclame și conținut personalizat, evaluarea reclamelor și a conținutului, informații despre audiențe și dezvoltarea produselor

    Reclamele și conținutul pot fi personalizate pe baza unui profil. Pot fi adăugate date suplimentare pentru a personaliza mai bine reclamele și conținutul. Performanța reclamelor și conținutului poate fi măsurată. Pot fi obținute informații despre utilizatorii care au văzut reclamele și conținutul. Aceste date pot fi utilizate pentru a dezvolta sau îmbunătăți experiența utilizatorilor, sistemele și software-ul.

Dând clic pe ‘Sunt de acord’, permiteți utilizarea cookie-urilor menționate, a identificatorilor de dispozitiv, balizelor web sau altor tehnologii similare. Setările pot fi modificate din browser-ul dispozitivului dumneavoastră.

În anumite scopuri, interesele legitime pot prima asupra consimțământului. Puteți citi mai multe informații în acest sens în Politica privind Confidențialitatea Datelor și Cookie.